Home   Weather   Kitzbühel   Past weeks

Flag for Austria Past Weather in Kitzbühel, Tyrol, Austria — Yesterday and Last 2 Weeks

Now
26 °F

Chilly.


Feels Like: 26 °F
Forecast: 9 / 21 °F
Wind: 2 mph from Northeast

Location: Kufstein

Current Time: Jan 16, 2017 at 6:40:00 pm

Latest Report: Jan 16, 2017 at 5:00 pm


Visibility: N/A

Pressure: 30.25 "Hg (27.51 "Hg at 750m altitude)

Humidity: 87%

Dew Point: 23 °F

Location of KitzbühelLocation

Past Weather in Kitzbühel — Graph

°F

Kitzbühel Temperature Yesterday

Maximum temperature yesterday: 31 °F (at 3:00 pm)
Minimum temperature yesterday: 23 °F (at 7:00 am)
Average temperature yesterday: 26 °F

High & Low Weather Summary for the Past Weeks

 TemperatureHumidityPressure
High40 °F (Jan 13, 10:00 am)97% (Jan 12, 2:00 am)30.85 "Hg (Jan 12, 2:00 am)
Low0 °F (Jan 7, 6:00 am)42% (Jan 13, 3:00 pm)29.47 "Hg (Jan 13, 3:00 am)
Average26 °F84%30.22 "Hg
* Reported Jan 1 5:00 pm — Jan 16 5:00 pm, Kitzbühel, Weather by CustomWeather, © 2017

Note: Actual official high and low records may vary slightly from our data, if they occured in-between our weather recording intervals... More about our weather records

Advertising

Kitzbühel Weather History for the Previous 24 Hours

Scroll right to see more
 ConditionsComfort  
Time TempWeatherWind HumidityBarometerVisibility
5:00 pm
Mon, Jan 16
26 °FChilly.2 mph87%30.25 "HgN/A
4:00 pm27 °FChilly.2 mph77%30.23 "HgN/A
3:00 pm27 °FChilly.2 mph78%30.22 "HgN/A
2:00 pm27 °FFog.1 mph82%30.22 "HgN/A
1:00 pm26 °FChilly.1 mph81%30.23 "HgN/A
12:00 pm24 °FFog.2 mph84%30.24 "HgN/A
11:00 am23 °FFog.2 mph85%30.26 "HgN/A
10:00 am22 °FCold.3 mph87%30.26 "HgN/A
9:00 am22 °FLight mixture of precip. Cloudy.1 mph89%30.26 "HgN/A
8:00 am22 °FFog.2 mph89%30.25 "HgN/A
7:00 am22 °FLight snow. Overcast.2 mph91%30.23 "Hg2 mi
6:00 am22 °FCold.2 mph90%30.22 "HgN/A
5:00 am22 °FCold.3 mph90%30.22 "HgN/A
4:00 am23 °FCold.2 mph89%30.22 "HgN/A
3:00 am24 °FFog.2 mph92%30.22 "HgN/A
2:00 am24 °FFog.1 mph92%30.22 "HgN/A
1:00 am24 °FCold.No wind92%30.23 "HgN/A
12:00 am24 °FFog.1 mph92%30.24 "HgN/A
11:00 pm
Sun, Jan 15
24 °FCold.No wind92%30.24 "HgN/A
10:00 pm24 °FCold.No wind93%30.24 "HgN/A
9:00 pm25 °FFog.No wind93%30.24 "HgN/A
8:00 pm26 °FFog.1 mph91%30.24 "HgN/A
7:00 pm26 °FChilly.No wind89%30.23 "HgN/A
6:00 pm27 °FChilly.1 mph90%30.22 "HgN/A
Weather by CustomWeather, © 2017

See weather overviewHow to use our weather pages